Time,TemperatureF,DewpointF,PressureIn,WindDirection,WindDirectionDegrees,WindSpeedMPH,WindSpeedGustMPH,Humidity,HourlyPrecipIn,Conditions,Clouds,dailyrainin,SoftwareType,DateUTC
2013-08-06 00:01:00,72.0,54.0,29.86,SW,216,0.0,0.0,54,0.00,,,0.00,,2013-08-06 04:01:00,
2013-08-06 00:11:00,71.0,54.0,29.86,SSW,199,1.0,5.0,54,0.00,,,0.00,,2013-08-06 04:11:00,
2013-08-06 00:33:00,71.0,53.0,29.86,ESE,116,0.0,0.0,53,0.00,,,0.00,,2013-08-06 04:33:00,
2013-08-06 00:44:00,71.0,53.0,29.86,SW,226,0.0,0.0,53,0.00,,,0.00,,2013-08-06 04:44:00,
2013-08-06 00:53:00,71.0,53.0,29.86,SW,226,0.0,0.0,53,0.00,,,0.00,,2013-08-06 04:53:00,
2013-08-06 01:02:00,71.0,53.0,29.86,SW,226,0.0,0.0,53,0.00,,,0.00,,2013-08-06 05:02:00,
2013-08-06 01:11:00,71.0,54.0,29.85,SW,226,0.0,0.0,55,0.00,,,0.00,,2013-08-06 05:11:00,
2013-08-06 01:43:00,71.0,55.0,29.85,SSW,201,1.0,3.0,57,0.00,,,0.00,,2013-08-06 05:43:00,
2013-08-06 01:53:00,70.0,54.0,29.85,South,179,0.0,0.0,56,0.00,,,0.00,,2013-08-06 05:53:00,
2013-08-06 02:11:00,70.0,54.0,29.84,South,172,0.0,0.0,57,0.00,,,0.00,,2013-08-06 06:11:00,
2013-08-06 02:22:00,70.0,54.0,29.84,South,172,0.0,0.0,57,0.00,,,0.00,,2013-08-06 06:22:00,
2013-08-06 02:32:00,70.0,55.0,29.84,South,172,0.0,0.0,58,0.00,,,0.00,,2013-08-06 06:32:00,
2013-08-06 02:43:00,70.0,55.0,29.84,South,172,0.0,0.0,58,0.00,,,0.00,,2013-08-06 06:43:00,
2013-08-06 02:52:00,70.0,55.0,29.84,South,176,0.0,0.0,58,0.00,,,0.00,,2013-08-06 06:52:00,
2013-08-06 03:01:00,70.0,55.0,29.83,South,176,0.0,0.0,58,0.00,,,0.00,,2013-08-06 07:01:00,
2013-08-06 03:12:00,70.0,55.0,29.84,South,176,0.0,0.0,58,0.00,,,0.00,,2013-08-06 07:12:00,
2013-08-06 03:22:00,70.0,55.0,29.84,South,176,0.0,0.0,59,0.00,,,0.00,,2013-08-06 07:22:00,
2013-08-06 03:32:00,69.0,54.0,29.84,South,176,0.0,0.0,59,0.00,,,0.00,,2013-08-06 07:32:00,
2013-08-06 03:43:00,69.0,54.0,29.84,South,176,0.0,0.0,59,0.00,,,0.00,,2013-08-06 07:43:00,
2013-08-06 03:53:00,69.0,54.0,29.84,South,176,0.0,0.0,59,0.00,,,0.00,,2013-08-06 07:53:00,
2013-08-06 04:02:00,69.0,55.0,29.84,South,176,0.0,0.0,61,0.00,,,0.00,,2013-08-06 08:02:00,
2013-08-06 04:11:00,69.0,55.0,29.84,SW,230,0.0,0.0,61,0.00,,,0.00,,2013-08-06 08:11:00,
2013-08-06 04:22:00,69.0,55.0,29.84,SE,144,0.0,2.0,61,0.00,,,0.00,,2013-08-06 08:22:00,
2013-08-06 04:33:00,69.0,55.0,29.83,SSW,194,1.0,6.0,61,0.00,,,0.00,,2013-08-06 08:33:00,
2013-08-06 04:43:00,69.0,55.0,29.83,SSW,202,2.0,6.0,61,0.00,,,0.00,,2013-08-06 08:43:00,
2013-08-06 04:52:00,69.0,55.0,29.83,South,186,0.0,3.0,61,0.00,,,0.00,,2013-08-06 08:52:00,
2013-08-06 05:01:00,69.0,55.0,29.82,SSW,210,1.0,0.0,61,0.00,,,0.00,,2013-08-06 09:01:00,
2013-08-06 05:11:00,69.0,55.0,29.81,SSW,212,0.0,0.0,61,0.00,,,0.00,,2013-08-06 09:11:00,
2013-08-06 05:22:00,69.0,55.0,29.82,SSW,213,0.0,3.0,61,0.00,,,0.00,,2013-08-06 09:22:00,
2013-08-06 05:32:00,69.0,55.0,29.81,ESE,111,0.0,3.0,62,0.00,,,0.00,,2013-08-06 09:32:00,
2013-08-06 05:43:00,69.0,55.0,29.81,South,175,0.0,0.0,62,0.00,,,0.00,,2013-08-06 09:43:00,
2013-08-06 05:52:00,69.0,55.0,29.82,SSW,193,0.0,0.0,62,0.00,,,0.00,,2013-08-06 09:52:00,
2013-08-06 06:22:00,68.0,55.0,29.82,South,180,2.0,5.0,63,0.00,,,0.00,,2013-08-06 10:22:00,
2013-08-06 06:32:00,68.0,55.0,29.82,SSW,192,0.0,0.0,63,0.00,,,0.00,,2013-08-06 10:32:00,
2013-08-06 06:43:00,68.0,55.0,29.81,SSW,205,0.0,5.0,63,0.00,,,0.00,,2013-08-06 10:43:00,
2013-08-06 06:52:00,68.0,55.0,29.81,SSW,205,1.0,6.0,63,0.00,,,0.00,,2013-08-06 10:52:00,
2013-08-06 07:11:00,68.0,55.0,29.83,South,184,0.0,0.0,63,0.00,,,0.00,,2013-08-06 11:11:00,
2013-08-06 07:22:00,68.0,55.0,29.84,South,187,1.0,5.0,63,0.00,,,0.00,,2013-08-06 11:22:00,
2013-08-06 07:32:00,68.0,56.0,29.84,ESE,110,0.0,0.0,65,0.00,,,0.00,,2013-08-06 11:32:00,
2013-08-06 07:43:00,68.0,56.0,29.84,SSW,203,0.0,0.0,65,0.00,,,0.00,,2013-08-06 11:43:00,
2013-08-06 07:53:00,68.0,56.0,29.84,SSW,198,0.0,0.0,65,0.00,,,0.00,,2013-08-06 11:53:00,
2013-08-06 08:02:00,68.0,56.0,29.85,ESE,110,0.0,0.0,65,0.00,,,0.00,,2013-08-06 12:02:00,
2013-08-06 08:11:00,68.0,56.0,29.85,SW,222,0.0,0.0,65,0.00,,,0.00,,2013-08-06 12:11:00,
2013-08-06 08:43:00,69.0,56.0,29.84,South,174,1.0,3.0,63,0.00,,,0.00,,2013-08-06 12:43:00,
2013-08-06 08:52:00,69.0,56.0,29.84,SSW,192,2.0,6.0,63,0.00,,,0.00,,2013-08-06 12:52:00,
2013-08-06 09:02:00,69.0,56.0,29.85,SSW,200,1.0,5.0,63,0.00,,,0.00,,2013-08-06 13:02:00,
2013-08-06 09:11:00,70.0,57.0,29.85,SSW,192,3.0,5.0,63,0.00,,,0.00,,2013-08-06 13:11:00,
2013-08-06 09:42:00,71.0,57.0,29.85,South,178,1.0,7.0,61,0.00,,,0.00,,2013-08-06 13:42:00,
2013-08-06 09:53:00,72.0,58.0,29.85,SSW,198,2.0,3.0,61,0.00,,,0.00,,2013-08-06 13:53:00,
2013-08-06 10:01:00,72.0,58.0,29.85,WSW,248,3.0,7.0,61,0.00,,,0.00,,2013-08-06 14:01:00,
2013-08-06 10:11:00,72.0,57.0,29.85,SW,221,1.0,3.0,60,0.00,,,0.00,,2013-08-06 14:11:00,
2013-08-06 10:22:00,73.0,58.0,29.85,WSW,238,2.0,3.0,60,0.00,,,0.00,,2013-08-06 14:22:00,
2013-08-06 10:42:00,74.0,59.0,29.84,SSW,209,1.0,5.0,59,0.00,,,0.00,,2013-08-06 14:42:00,
2013-08-06 10:53:00,74.0,58.0,29.84,South,191,0.0,0.0,58,0.00,,,0.00,,2013-08-06 14:53:00,
2013-08-06 11:02:00,75.0,59.0,29.84,ESE,104,2.0,3.0,58,0.00,,,0.00,,2013-08-06 15:02:00,
2013-08-06 11:11:00,76.0,60.0,29.84,SSW,199,1.0,7.0,58,0.00,,,0.00,,2013-08-06 15:11:00,
2013-08-06 11:33:00,76.0,60.0,29.84,SW,219,3.0,6.0,57,0.00,,,0.00,,2013-08-06 15:33:00,
2013-08-06 11:44:00,76.0,60.0,29.84,SSW,210,2.0,3.0,57,0.00,,,0.00,,2013-08-06 15:44:00,
2013-08-06 11:52:00,77.0,61.0,29.84,WNW,298,1.0,3.0,57,0.00,,,0.00,,2013-08-06 15:52:00,
2013-08-06 12:02:00,78.0,61.0,29.84,South,180,2.0,5.0,55,0.00,,,0.00,,2013-08-06 16:02:00,
2013-08-06 12:11:00,79.0,61.0,29.84,West,267,0.0,5.0,55,0.00,,,0.00,,2013-08-06 16:11:00,
2013-08-06 12:43:00,79.0,60.0,29.84,East,82,1.0,3.0,52,0.00,,,0.00,,2013-08-06 16:43:00,
2013-08-06 12:52:00,79.0,60.0,29.84,SW,236,5.0,7.0,53,0.00,,,0.00,,2013-08-06 16:52:00,
2013-08-06 13:11:00,80.0,61.0,29.84,WSW,243,3.0,5.0,52,0.00,,,0.00,,2013-08-06 17:11:00,
2013-08-06 13:44:00,80.0,61.0,29.83,SSW,208,5.0,8.0,53,0.00,,,0.00,,2013-08-06 17:44:00,
2013-08-06 13:52:00,80.0,61.0,29.83,SSW,210,1.0,2.0,53,0.00,,,0.00,,2013-08-06 17:52:00,
2013-08-06 14:01:00,80.0,60.0,29.82,South,189,0.0,0.0,51,0.00,,,0.00,,2013-08-06 18:01:00,
2013-08-06 14:11:00,80.0,60.0,29.82,SSW,192,0.0,0.0,50,0.00,,,0.00,,2013-08-06 18:11:00,
2013-08-06 14:22:00,81.0,60.0,29.82,ESE,114,1.0,0.0,49,0.00,,,0.00,,2013-08-06 18:22:00,
2013-08-06 14:32:00,81.0,59.0,29.82,East,94,1.0,6.0,48,0.00,,,0.00,,2013-08-06 18:32:00,
2013-08-06 14:43:00,81.0,59.0,29.83,SW,219,1.0,2.0,48,0.00,,,0.00,,2013-08-06 18:43:00,
2013-08-06 14:52:00,81.0,59.0,29.83,SW,219,1.0,2.0,48,0.00,,,0.00,,2013-08-06 18:52:00,
2013-08-06 15:01:00,81.0,59.0,29.83,South,181,1.0,0.0,48,0.00,,,0.00,,2013-08-06 19:01:00,
2013-08-06 15:11:00,82.0,60.0,29.82,South,171,1.0,5.0,48,0.00,,,0.00,,2013-08-06 19:11:00,
2013-08-06 15:21:00,83.0,61.0,29.83,SSW,203,2.0,6.0,48,0.00,,,0.00,,2013-08-06 19:21:00,
2013-08-06 15:32:00,82.0,60.0,29.83,SW,223,0.0,0.0,48,0.00,,,0.00,,2013-08-06 19:32:00,
2013-08-06 15:42:00,82.0,60.0,29.83,SW,223,0.0,0.0,48,0.00,,,0.00,,2013-08-06 19:42:00,
2013-08-06 15:52:00,82.0,61.0,29.82,SSW,210,1.0,7.0,49,0.00,,,0.00,,2013-08-06 19:52:00,
2013-08-06 16:11:00,83.0,61.0,29.82,SW,217,1.0,5.0,48,0.00,,,0.00,,2013-08-06 20:11:00,
2013-08-06 16:22:00,83.0,61.0,29.81,SSW,193,2.0,6.0,48,0.00,,,0.00,,2013-08-06 20:22:00,
2013-08-06 16:32:00,83.0,61.0,29.81,SSW,207,1.0,5.0,47,0.00,,,0.00,,2013-08-06 20:32:00,
2013-08-06 16:44:00,84.0,61.0,29.80,SW,216,1.0,3.0,46,0.00,,,0.00,,2013-08-06 20:44:00,
2013-08-06 16:52:00,83.0,61.0,29.80,SSW,210,1.0,5.0,47,0.00,,,0.00,,2013-08-06 20:52:00,
2013-08-06 17:01:00,83.0,61.0,29.80,SSW,210,0.0,6.0,48,0.00,,,0.00,,2013-08-06 21:01:00,
2013-08-06 17:11:00,83.0,61.0,29.80,SSW,210,0.0,6.0,48,0.00,,,0.00,,2013-08-06 21:11:00,
2013-08-06 17:32:00,84.0,62.0,29.81,South,187,0.0,2.0,47,0.00,,,0.00,,2013-08-06 21:32:00,
2013-08-06 17:43:00,83.0,61.0,29.80,SW,216,0.0,0.0,48,0.00,,,0.00,,2013-08-06 21:43:00,
2013-08-06 18:01:00,83.0,61.0,29.81,SSW,210,0.0,0.0,48,0.00,,,0.00,,2013-08-06 22:01:00,
2013-08-06 18:11:00,83.0,61.0,29.80,SW,220,0.0,0.0,48,0.00,,,0.00,,2013-08-06 22:11:00,
2013-08-06 18:22:00,84.0,62.0,29.80,SSW,198,0.0,5.0,48,0.00,,,0.00,,2013-08-06 22:22:00,
2013-08-06 18:43:00,84.0,62.0,29.80,SSW,206,0.0,5.0,47,0.00,,,0.00,,2013-08-06 22:43:00,
2013-08-06 19:01:00,85.0,62.0,29.80,South,186,1.0,0.0,47,0.00,,,0.00,,2013-08-06 23:01:00,
2013-08-06 19:22:00,84.0,62.0,29.80,South,181,1.0,2.0,48,0.00,,,0.00,,2013-08-06 23:22:00,
2013-08-06 19:43:00,84.0,62.0,29.80,South,190,1.0,5.0,48,0.00,,,0.00,,2013-08-06 23:43:00,
2013-08-06 19:52:00,84.0,63.0,29.80,South,178,2.0,3.0,49,0.00,,,0.00,,2013-08-06 23:52:00,
2013-08-06 20:01:00,83.0,62.0,29.80,SW,217,0.0,0.0,50,0.00,,,0.00,,2013-08-07 00:01:00,
2013-08-06 20:11:00,83.0,62.0,29.80,SSW,208,0.0,0.0,50,0.00,,,0.00,,2013-08-07 00:11:00,
2013-08-06 20:21:00,83.0,64.0,29.80,SW,219,1.0,3.0,52,0.00,,,0.00,,2013-08-07 00:21:00,
2013-08-06 20:32:00,82.0,63.0,29.80,SW,219,0.0,0.0,53,0.00,,,0.00,,2013-08-07 00:32:00,
2013-08-06 20:43:00,82.0,64.0,29.80,SW,219,0.0,0.0,54,0.00,,,0.00,,2013-08-07 00:43:00,
2013-08-06 21:01:00,80.0,63.0,29.80,SW,219,0.0,0.0,57,0.00,,,0.00,,2013-08-07 01:01:00,
2013-08-06 21:11:00,80.0,64.0,29.80,SSW,195,0.0,0.0,58,0.00,,,0.00,,2013-08-07 01:11:00,
2013-08-06 21:43:00,78.0,63.0,29.80,SW,215,0.0,0.0,61,0.00,,,0.00,,2013-08-07 01:43:00,
2013-08-06 21:52:00,78.0,64.0,29.80,SW,215,0.0,0.0,62,0.00,,,0.00,,2013-08-07 01:52:00,
2013-08-06 22:02:00,78.0,64.0,29.80,SW,215,0.0,0.0,63,0.00,,,0.00,,2013-08-07 02:02:00,
2013-08-06 22:11:00,77.0,64.0,29.81,SW,215,0.0,0.0,65,0.00,,,0.00,,2013-08-07 02:11:00,
2013-08-06 22:22:00,77.0,64.0,29.81,SW,215,0.0,0.0,65,0.00,,,0.00,,2013-08-07 02:22:00,
2013-08-06 22:33:00,77.0,65.0,29.81,SW,215,0.0,0.0,66,0.00,,,0.00,,2013-08-07 02:33:00,
2013-08-06 22:43:00,77.0,65.0,29.81,SW,215,0.0,0.0,66,0.00,,,0.00,,2013-08-07 02:43:00,
2013-08-06 23:01:00,76.0,65.0,29.81,SW,215,0.0,0.0,70,0.00,,,0.00,,2013-08-07 03:01:00,
2013-08-06 23:43:00,75.0,67.0,29.81,SW,215,0.0,0.0,75,0.00,,,0.00,,2013-08-07 03:43:00,
2013-08-06 23:52:00,75.0,67.0,29.81,SW,215,0.0,0.0,75,0.00,,,0.00,,2013-08-07 03:52:00,